Upcoming* NOVA Improvements: Earlier this summer, the Minnesota Public Utilities Commission approved revised templates for the Simplified and Standard Interconnection Applications. While these templates are not required and do not change the MN DIP, NOVA Power Portal is being updated to align with these templates by clarifying application questions and simplifying input data fields, which includes removing current redundant inputs. For more information and to view copies of the revised templates, visit the MN PUC web site: mn.gov/puc/activities/economic-analysis/distributed-energy/interconnections/
*These NOVA Power Portal updates will be implemented by the end of 2021.

Distributed Energy Resource Document Library

Browse interconnection resource documents or download a PDF application.

Current Application Queue

APP ID Queue # Qualify Date Process Status DER Type and Size Sub - Fdr - Phs
APP1059 1 7/16/2019 12:33:22 PM Simplified Interconnected Solar Photovoltaic 9.86 kW 20 - 1 - B
APP1048 2 7/16/2019 5:38:20 PM Simplified Interconnected Solar Photovoltaic 15.20 kW 22 - 1 - A
APP1197 3 7/23/2019 10:51:39 PM Simplified Interconnected Solar Photovoltaic 16.41 kW 12 - 4 - A
APP1187 4 7/24/2019 9:39:31 AM Simplified Interconnected Solar Photovoltaic 20.00 kW 12 - 2 - B
APP1386 5 7/24/2019 11:30:54 AM Simplified Interconnected Solar Photovoltaic 10.00 kW 20 - 1 - C
APP1553 6 8/3/2019 11:26:44 AM Simplified Interconnected Solar Photovoltaic 7.60 kW 21 - 1 - B
APP1725 7 8/13/2019 8:22:05 PM Fast Track Interconnected Solar Photovoltaic 24.00 kW 10 - 3 - B
APP1986 8 8/30/2019 7:23:31 AM Simplified Interconnected Solar Photovoltaic kW 11 - 1 - A
APP2076 9 9/3/2019 8:41:56 PM Simplified Interconnected Solar Photovoltaic 15.20 kW 15 - 3 - A
APP2075 10 9/4/2019 9:32:53 AM Simplified Interconnected Solar Photovoltaic 7.08 kW 20 - 1 - B
APP2077 11 9/4/2019 7:32:53 PM Simplified Interconnected Solar Photovoltaic 5.00 kW 11 - 3 - C
APP2297 12 9/20/2019 4:23:59 PM Simplified Interconnected Solar Photovoltaic 10.00 kW 1 - 4 - C
APP2072 13 9/23/2019 3:42:54 PM Simplified Interconnected Solar Photovoltaic 11.40 kW 1 - 2 - B
APP2398 14 10/2/2019 9:18:38 PM Simplified Interconnected Solar Photovoltaic 11.40 kW 88 - 1 - A
APP2407 15 10/4/2019 2:29:27 PM Simplified Interconnected Solar Photovoltaic 8.12 kW 1 - 2 - B
APP2452 16 10/9/2019 7:00:27 PM Simplified Interconnected Solar Photovoltaic 10.00 kW 19 - 4 - C
APP2446 17 10/10/2019 11:06:03 PM Simplified Interconnected Solar Photovoltaic 15.20 kW 2 - 3 - C
APP2549 18 11/2/2019 6:51:33 PM Simplified Interconnected Solar Photovoltaic 11.40 kW 88 - 1 - B
APP2568 19 11/6/2019 12:30:42 PM Simplified Interconnected Solar Photovoltaic 10.00 kW 17 - 1 - A
APP2596 20 11/14/2019 8:48:51 AM Simplified Interconnected Solar Photovoltaic 17.60 kW 3 - 1 - C
APP2626 21 11/26/2019 6:14:01 PM Simplified Interconnected Solar Photovoltaic 8.88 kW 9 - 4 - B
APP2695 22 12/17/2019 6:26:03 AM Simplified Interconnected Solar Photovoltaic 10.00 kW 6 - 1 - C
APP2801 23 1/29/2020 9:27:35 PM Simplified Interconnected Solar Photovoltaic 8.85 kW 12 - 3 - A
APP2896 24 2/28/2020 9:41:29 AM Simplified Interconnected Solar Photovoltaic 7.60 kW 2 - 4 - C
APP2930 25 3/18/2020 1:24:02 PM Simplified Interconnected Solar Photovoltaic 7.54 kW 12 - 3 - B
APP3014 26 4/7/2020 7:06:42 AM Simplified Interconnected Solar Photovoltaic 5.00 kW 17 - 4 - C
APP3122 27 5/12/2020 11:21:01 PM Simplified Interconnected Solar Photovoltaic 11.52 kW 19 - 4 - B
APP3182 28 5/29/2020 5:14:07 PM Simplified Interconnected Solar Photovoltaic 11.96 kW 88 - 22 - B
APP3184 29 6/3/2020 10:52:38 AM Simplified Interconnected Solar Photovoltaic 8.00 kW 23 - 4 - A
APP3209 30 6/7/2020 9:48:55 PM Simplified Interconnected Solar Photovoltaic 6.90 kW 88 - 33 - A
APP3198 31 7/1/2020 9:42:35 AM Simplified Interconnected Solar Photovoltaic 16.00 kW 12 - 2 - A
APP3330 32 7/14/2020 6:50:44 PM Simplified Interconnected Solar Photovoltaic 5.76 kW 24 - 1 - A
APP3334 33 7/16/2020 1:17:58 PM Simplified Interconnected Solar Photovoltaic 12.56 kW 22 - 3 - C
APP3390 34 7/29/2020 10:03:44 AM Simplified Interconnected Solar Photovoltaic 4.32 kW 22 - 1 - A
APP3299 35 8/5/2020 9:55:30 AM Simplified DER Installation and Interconnection Solar Photovoltaic 5.72 kW 5 - 4 - A
APP3416 36 8/5/2020 11:02:06 AM Simplified Interconnected Solar Photovoltaic 8.12 kW 21 - 11 - B
APP3418 37 8/6/2020 5:28:08 PM Simplified Interconnected Solar Photovoltaic 6.00 kW 15 - 3 - A
APP3424 38 8/12/2020 11:28:10 AM Simplified Interconnected Solar Photovoltaic 7.60 kW 22 - 3 - A
APP3459 39 8/19/2020 11:52:28 AM Fast Track DER Installation and Interconnection Solar Photovoltaic 36.00 kW 5 - 3 - C
APP3460 40 8/19/2020 12:04:10 PM Fast Track DER Installation and Interconnection Solar Photovoltaic 36.00 kW 5 - 3 - ABC
APP3461 41 8/19/2020 4:37:29 PM Fast Track DER Installation and Interconnection Solar Photovoltaic 36.00 kW 5 - 3 - C
APP3468 42 8/22/2020 4:35:07 PM Simplified Interconnected Solar Photovoltaic 10.00 kW 12 - 1 - A
APP3495 43 9/1/2020 1:25:34 PM Fast Track Interconnected Solar Photovoltaic 23.04 kW 10 - 1 - B
APP3577 44 9/16/2020 10:20:29 AM Simplified Interconnected Solar Photovoltaic 12.18 kW 10 - 1 - C
APP3619 45 9/21/2020 7:16:12 PM Simplified Interconnected Solar Photovoltaic 7.00 kW 10 - 1 - A
APP3559 46 9/23/2020 7:36:24 PM Simplified Interconnected Solar Photovoltaic 7.54 kW 88 - 44 - C
APP3678 47 9/30/2020 9:14:33 AM Simplified Interconnected Solar Photovoltaic 6.09 kW 22 - 1 - C
APP3661 48 10/15/2020 7:41:58 AM Simplified Interconnected Solar Photovoltaic 5.00 kW 11 - 3 - C
APP3798 49 10/20/2020 1:36:49 PM Simplified Interconnected Solar Photovoltaic 5.48 kW 88 - 1 - B
APP3815 50 10/22/2020 4:47:35 PM Simplified Interconnected Solar Photovoltaic 10.00 kW 15 - 1 - C
APP3851 51 10/28/2020 10:44:30 AM Simplified Interconnected Solar Photovoltaic 10.41 kW 21 - 1 - C
APP3852 52 10/29/2020 6:30:04 PM Simplified Interconnected Solar Photovoltaic 12.60 kW 21 - 1 - A
APP3868 53 11/3/2020 3:04:09 PM Simplified Interconnected Solar Photovoltaic 7.50 kW 88 - 33 - B
APP3870 54 11/3/2020 7:49:41 PM Simplified Interconnected Solar Photovoltaic 8.70 kW 15 - 3 - C
APP3908 55 11/12/2020 1:41:56 PM Simplified Interconnected Solar Photovoltaic 7.67 kW 8 - 4 - C
APP3909 56 11/13/2020 3:02:11 PM Simplified Interconnected Solar Photovoltaic 5.48 kW 29 - 44 - A
APP3592 57 11/19/2020 5:24:43 PM Simplified Interconnected Solar Photovoltaic 3.80 kW 23 - 2 - A
APP3873 58 11/20/2020 7:27:48 PM Simplified Interconnected Solar Photovoltaic 6.00 kW 11 - 3 - B
APP3986 59 12/8/2020 2:41:52 PM Simplified Interconnected Solar Photovoltaic 4.38 kW 16 - 4 - A
APP4024 60 12/29/2020 10:35:40 AM Simplified Interconnected Solar Photovoltaic 7.67 kW 21 - 1 - C
APP4023 61 12/29/2020 11:00:35 AM Simplified Interconnected Solar Photovoltaic 6.58 kW 22 - 11 - A
APP4020 62 12/29/2020 12:19:41 PM Simplified Interconnected Solar Photovoltaic 11.40 kW 21 - 3 - A
APP4025 63 12/29/2020 4:25:14 PM Simplified Interconnected Solar Photovoltaic 9.32 kW 22 - 11 - A
APP4026 64 12/31/2020 10:05:46 AM Simplified Interconnected Solar Photovoltaic 6.40 kW 19 - 3 - B
APP4016 65 1/4/2021 1:31:58 PM Simplified Interconnected Solar Photovoltaic 5.00 kW 25 - 2 - C
APP4031 66 1/4/2021 3:52:49 PM Simplified Interconnected Solar Photovoltaic 8.99 kW 12 - 1 - B
APP4054 67 1/20/2021 2:08:11 PM Simplified Interconnected Solar Photovoltaic 6.00 kW 23 - 4 - A
APP4071 68 1/26/2021 2:18:43 PM Simplified Interconnected Solar Photovoltaic 9.57 kW 12 - 4 - C
APP4089 69 2/1/2021 10:22:08 AM Simplified Interconnected Solar Photovoltaic 13.05 kW 22 - 11 - C
APP4088 70 2/2/2021 1:53:44 PM Simplified Interconnected Solar Photovoltaic 10.00 kW 17 - 3 - B
APP4099 71 2/4/2021 6:42:35 PM Simplified Interconnected Solar Photovoltaic 13.05 kW 9 - 1 - C
APP4159 72 2/15/2021 4:06:14 PM Simplified Interconnected Solar Photovoltaic 7.60 kW 216 - 3 - C
APP4095 73 2/18/2021 2:18:29 PM Simplified Interconnected Solar Photovoltaic 9.28 kW 19 - 4 - C
APP4094 74 2/19/2021 10:24:03 AM Simplified Interconnected Solar Photovoltaic 7.67 kW 22 - 11 - A
APP4201 75 2/24/2021 8:39:09 AM Simplified Interconnected Solar Photovoltaic 8.37 kW 7 - 4 - A
APP4207 76 2/24/2021 9:46:36 AM Simplified DER Installation and Interconnection Solar Photovoltaic 7.60 kW 88 - 22 - C
APP4222 77 2/25/2021 8:37:09 PM Simplified Interconnected Solar Photovoltaic 6.03 kW 29 - 44 - B
APP4259 78 3/6/2021 10:06:41 AM Simplified Interconnected Solar Photovoltaic 10.41 kW 21 - 1 - B
APP4283 79 3/11/2021 4:30:29 PM Fast Track Interconnected Solar Photovoltaic 21.14 kW 22 - 1 - B
APP4295 80 3/16/2021 1:26:52 PM Fast Track Interconnected Solar Photovoltaic 37.80 kW 17 - 1 - ABC
APP4317 81 3/24/2021 12:05:20 PM Simplified Interconnected Solar Photovoltaic 6.38 kW 22 - 1 - C
APP4358 82 3/25/2021 9:44:51 AM Simplified Interconnected Solar Photovoltaic 4.38 kW 22 - 3 - B
APP4369 83 3/30/2021 11:05:15 AM Simplified Interconnected Solar Photovoltaic 3.48 kW 22 - 11 - B
APP4402 84 4/6/2021 2:09:45 PM Simplified Interconnected Solar Photovoltaic 9.77 kW 21 - 1 - C
APP4401 85 4/7/2021 8:48:34 PM Simplified DER Installation and Interconnection Solar Photovoltaic 9.07 kW 2 - 3 - B
APP4417 86 4/8/2021 9:29:35 PM Fast Track DER Installation and Interconnection Solar Photovoltaic 23.42 kW 24 - 3 - B
APP4439 87 4/14/2021 6:58:29 PM Simplified Interconnected Solar Photovoltaic 6.58 kW 88 - 33 - A
APP4421 88 4/20/2021 1:48:06 PM Simplified DER Installation and Interconnection Solar Photovoltaic 7.60 kW 88 - 33 - C
APP4512 89 4/30/2021 1:34:09 PM Simplified DER Installation and Interconnection Solar Photovoltaic 4.35 kW 17 - 4 - A
APP4541 90 5/7/2021 2:00:36 PM Simplified DER Installation and Interconnection Solar Photovoltaic 8.12 kW 5 - 4 - B
APP4552 91 5/12/2021 2:08:11 PM Simplified DER Installation and Interconnection Solar Photovoltaic 12.20 kW 19 - 3 - C
APP4563 92 5/13/2021 1:47:41 PM Simplified DER Installation and Interconnection Solar Photovoltaic 8.68 kW 15 - 3 - B
APP4617 93 6/4/2021 6:57:29 AM Simplified Interconnected Solar Photovoltaic 13.96 kW 10 - 1 - B
APP4710 94 6/20/2021 7:18:40 PM Simplified DER Installation and Interconnection Solar Photovoltaic 6.28 kW 17 - 1 - C
APP4742 95 6/28/2021 3:27:51 PM Fast Track DER Installation and Interconnection Solar Photovoltaic 27.92 kW 6 - 1 - A
APP4751 96 6/30/2021 3:24:10 PM Simplified DER Installation and Interconnection Solar Photovoltaic 8.41 kW 17 - 3 - B
APP4759 97 7/1/2021 2:40:15 PM Simplified Interconnected Solar Photovoltaic 6.96 kW 1 - 2 - C
APP4511 98 7/2/2021 12:22:56 PM Simplified DER Installation and Interconnection Solar Photovoltaic 4.66 kW 3 - 22 - C
APP4769 99 7/6/2021 5:42:45 PM Simplified DER Installation and Interconnection Solar Photovoltaic 9.28 kW 3 - 22 - A
APP4701 100 7/12/2021 8:14:47 PM Simplified DER Installation and Interconnection Solar Photovoltaic 4.37 kW 88 - 22 - B
APP4830 101 7/16/2021 5:07:40 PM Simplified Interconnected Solar Photovoltaic 3.19 kW 12 - 4 - B
APP4841 102 7/21/2021 1:41:54 PM Simplified Interconnected Solar Photovoltaic 9.28 kW 23 - 3 - A
APP4847 103 7/22/2021 10:37:23 AM Simplified DER Installation and Interconnection Solar Photovoltaic 9.28 kW 15 - 3 - B
APP4853 104 7/23/2021 2:27:30 PM Simplified DER Installation and Interconnection Solar Photovoltaic 5.80 kW 12 - 3 - A
APP4855 105 7/26/2021 12:03:02 PM Simplified Inspection and Testing Solar Photovoltaic 8.70 kW 88 - 44 - A
APP4878 106 8/3/2021 10:35:32 AM Simplified Inspection and Testing Solar Photovoltaic 13.63 kW 12 - 1 - B
APP4566 107 8/13/2021 12:22:56 PM Fast Track Pending Contract (Customer) Solar Photovoltaic 583.00 kW 3 - 22 - ABC
APP4951 108 8/19/2021 12:47:46 PM Simplified DER Installation and Interconnection Solar Photovoltaic 14.79 kW 10 - 1 - C
APP5045 109 9/2/2021 11:03:07 PM Simplified Pending Engineer Review Solar Photovoltaic 14.21 kW 12 - 4 - C
APP5052 110 9/9/2021 10:31:14 AM Simplified Facilities Construction Solar Photovoltaic 16.00 kW 2 - 4 - B
APP5110 111 9/15/2021 4:14:32 PM Simplified Pending Initial Review Solar Photovoltaic 7.60 kW - -
APP5083 112 9/16/2021 2:56:11 PM Simplified Facilities Construction Solar Photovoltaic 12.56 kW 19 - 3 - B
APP5084 113 9/18/2021 10:55:23 AM Simplified Pending Contract (Customer) Solar Photovoltaic 5.80 kW 22 - 1 - B
APP5113 114 9/25/2021 7:27:05 PM Simplified Pending Contract (Customer) Solar Photovoltaic 10.56 kW 5 - 3 - A
APP5152 115 9/27/2021 10:13:08 AM Simplified Facilities Construction Solar Photovoltaic 11.40 kW 11 - 1 - A
APP5126 116 10/4/2021 9:32:43 AM Simplified Pending Contract (Customer) Solar Photovoltaic 16.75 kW 6 - 1 - A
APP5169 117 10/6/2021 10:13:41 AM Simplified Facilities Construction Solar Photovoltaic 18.00 kW 10 - 1 - B
APP5204 118 10/7/2021 12:29:00 PM Simplified Facilities Construction Solar Photovoltaic 6.28 kW 20 - 2 - B
APP5190 119 10/21/2021 6:51:58 AM Simplified Pending Initial Review Solar Photovoltaic 15.20 kW - -

 

 

  © 2021 - Application developed and maintained by STAR Energy Services LLC